Dryden, TX

12:37 PM CDT on July 27, 2017 (GMT -0500)
Dryden

Weather History for K6R6 - February, 2014

Change the Weather History Date:

Saturday, February 15, 2014

  Actual Average (KFST) Record (KFST)
Temperature  
Mean Temperature 64 °F -  
Max Temperature 82 °F 64 °F 86 °F (2000)
Min Temperature 45 °F 40 °F 26 °F (2007)
Degree Days  
Heating Degree Days 2    
Growing Degree Days 14 (Base 50)    
Moisture  
Dew Point 30 °F    
Average Humidity 32    
Maximum Humidity 49    
Minimum Humidity 14    
Precipitation  
Precipitation 0.00 in - - ()
Sea Level Pressure  
Sea Level Pressure 29.98 in    
Wind  
Wind Speed 8 mph (NE)    
Max Wind Speed 14 mph    
Max Gust Speed 16 mph    
Averages and records for this station are not official NWS values.
T = Trace of Precipitation, MM = Missing Value Source: NWS Daily Summary

Daily Weather History Graph

Daily Weather History Graph

Search for Another Location

Airport or City:

Trip Planner

Search our weather history database for the weather conditions in past years. The results will help you decide how hot, cold, wet, or windy it might be!

Date:

Astronomy

Feb. 15, 2014 Rise Set
Actual Time 7:28 AM CST 6:37 PM CST
Civil Twilight 7:04 AM CST 7:02 PM CST
Nautical Twilight 6:36 AM CST 7:30 PM CST
Astronomical Twilight 6:08 AM CST 7:58 PM CST
Moon 7:31 PM CST (2/15) 7:34 AM CST (2/15)
Length of Visible Light 11h 57m
Length of Day
11h 08m
Waxing Gibbous, 99% of the Moon is Illuminated
Feb 15
Waxing Gibbous
Feb 22
Last Quarter
Mar 1
New
Mar 8
First Quarter
Mar 16
Full

Hourly Weather History & Observations

Time (CST) Temp. Windchill Dew Point Humidity Pressure Visibility Wind Dir Wind Speed Gust Speed Precip Events Conditions
12:53 AM 54.0 °F - 27.0 °F 35% 30.03 in - NNE 10.4 mph - N/A   Unknown
1:53 AM 53.1 °F - 27.0 °F 37% 30.02 in - North 10.4 mph - N/A   Unknown
2:53 AM 52.0 °F - 27.0 °F 38% 30.00 in - North 8.1 mph - N/A   Unknown
3:53 AM 51.1 °F - 27.0 °F 39% 30.00 in - North 9.2 mph - N/A   Unknown
4:53 AM 52.0 °F - 27.0 °F 38% 29.99 in - NNE 4.6 mph - N/A   Unknown
5:53 AM 48.9 °F - 27.0 °F 43% 30.00 in - NE 5.8 mph - N/A   Unknown
6:53 AM 46.9 °F - 27.0 °F 46% 30.01 in - NNE 6.9 mph - N/A   Unknown
7:53 AM 45.0 °F 41.8 °F 27.0 °F 49% 30.03 in - NNW 5.8 mph - N/A   Unknown
8:53 AM 55.9 °F - 28.0 °F 34% 30.04 in - Calm Calm - N/A   Unknown
9:53 AM 60.1 °F - 28.9 °F 31% 30.05 in - Variable 3.5 mph - N/A   Unknown
10:53 AM 64.9 °F - 28.9 °F 26% 30.04 in - Calm Calm - N/A   Unknown
11:53 AM 70.0 °F - 28.9 °F 22% 30.01 in - SW 8.1 mph - N/A   Unknown
12:53 PM 75.0 °F - 28.9 °F 18% 29.99 in - South 10.4 mph 16.1 mph N/A   Unknown
1:53 PM 77.0 °F - 28.9 °F 17% 29.95 in - SE 6.9 mph - N/A   Unknown
2:53 PM 80.1 °F - 28.0 °F 15% 29.92 in - Variable 6.9 mph - N/A   Unknown
3:53 PM 82.9 °F - 28.0 °F 14% 29.90 in - SSE 8.1 mph - N/A   Unknown
4:53 PM 82.9 °F - 28.0 °F 14% 29.89 in - SE 10.4 mph - N/A   Unknown
5:53 PM 80.1 °F - 32.0 °F 17% 29.90 in - ESE 13.8 mph - N/A   Unknown
6:53 PM 71.1 °F - 36.0 °F 28% 29.93 in - East 8.1 mph - N/A   Unknown
7:53 PM 63.0 °F - 35.1 °F 35% 29.96 in - NE 8.1 mph - N/A   Unknown
8:53 PM 62.1 °F - 36.0 °F 38% 29.96 in - NNE 6.9 mph - N/A   Unknown
9:53 PM 61.0 °F - 36.0 °F 39% 29.95 in - NNE 6.9 mph - N/A   Unknown
10:53 PM 60.1 °F - 37.0 °F 42% 29.95 in - North 8.1 mph - N/A   Unknown
11:53 PM 60.1 °F - 37.0 °F 42% 29.94 in - North 8.1 mph - N/A   Unknown